When you browse on this site, cookies collect data to enhance your experience and personalize the content and advertising you see.
Visit our Privacy Policy to learn more. By continuing to use the site, you agree to this use of cookies and data.
  • en Suisse
  • Liste des pays
  • À 7 jours
  • Température de l'eau
  • Carte météo
  • Widgets météo
  • user-avatar
    Se connecter

    Météo par heure à Birmingem

    Ce jour, 29 Janvier, Mercredi

    Heure Température Précipitation Vent Pression Humidité
    00:00 +9°C° 0 mm 2 m/s 742 mmHg 67%
    01:00 +10°C° 0 mm 1 m/s 742 mmHg 67%
    02:00 +9°C° 0 mm 1 m/s 742 mmHg 67%
    03:00 +9°C° 0 mm 1 m/s 741 mmHg 67%
    04:00 +9°C° 0 mm 1 m/s 742 mmHg 69%
    05:00 +9°C° 0 mm 1 m/s 742 mmHg 71%
    06:00 +8°C° 0 mm 1 m/s 742 mmHg 73%
    07:00 +9°C° 0 mm 1 m/s 742 mmHg 71%
    08:00 +9°C° 0 mm 2 m/s 742 mmHg 69%
    09:00 +9°C° 0 mm 3 m/s 742 mmHg 67%
    10:00 +11°C° 0 mm 3 m/s 742 mmHg 62%
    11:00 +13°C° 0 mm 2 m/s 742 mmHg 57%
    12:00 +15°C° 0 mm 2 m/s 742 mmHg 52%
    13:00 +14°C° 0 mm 2 m/s 742 mmHg 54%
    14:00 +13°C° 0 mm 3 m/s 741 mmHg 55%
    15:00 +13°C° 0 mm 3 m/s 741 mmHg 57%
    16:00 +12°C° 0 mm 2 m/s 741 mmHg 64%
    17:00 +10°C° 0 mm 2 m/s 742 mmHg 72%
    18:00 +10°C° 0 mm 1 m/s 742 mmHg 80%
    19:00 +9°C° 0 mm 1 m/s 742 mmHg 82%
    20:00 +8°C° 0 mm 1 m/s 743 mmHg 85%
    21:00 +8°C° 0 mm 1 m/s 743 mmHg 87%
    22:00 +8°C° 0 mm 1 m/s 743 mmHg 88%
    23:00 +6°C° 0 mm 0 m/s 743 mmHg 89%

    Demain, 30 Janvier, Jeudi

    Heure Température Précipitation Vent Pression Humidité
    00:00 +6°C° 0 mm 0 m/s 743 mmHg 89%
    01:00 +6°C° 0 mm 0 m/s 743 mmHg 90%
    02:00 +6°C° 0 mm 0 m/s 743 mmHg 90%
    03:00 +5°C° 0 mm 0 m/s 743 mmHg 90%
    04:00 +5°C° 0 mm 0 m/s 743 mmHg 90%
    05:00 +5°C° 0 mm 0 m/s 744 mmHg 91%
    06:00 +6°C° 0 mm 1 m/s 744 mmHg 91%
    07:00 +7°C° 0 mm 1 m/s 745 mmHg 85%
    08:00 +9°C° 0 mm 1 m/s 745 mmHg 80%
    09:00 +10°C° 0 mm 1 m/s 746 mmHg 74%
    10:00 +12°C° 0 mm 1 m/s 745 mmHg 67%
    11:00 +13°C° 0 mm 1 m/s 745 mmHg 60%
    12:00 +15°C° 0 mm 2 m/s 745 mmHg 54%
    13:00 +15°C° 0 mm 2 m/s 745 mmHg 54%
    14:00 +15°C° 0 mm 1 m/s 744 mmHg 55%
    15:00 +15°C° 0 mm 1 m/s 744 mmHg 55%
    16:00 +14°C° 0 mm 1 m/s 744 mmHg 59%
    17:00 +13°C° 0 mm 1 m/s 744 mmHg 62%
    18:00 +12°C° 0 mm 1 m/s 744 mmHg 65%
    19:00 +12°C° 0 mm 1 m/s 744 mmHg 68%
    20:00 +12°C° 0 mm 1 m/s 745 mmHg 71%
    21:00 +11°C° 0 mm 1 m/s 745 mmHg 74%
    22:00 +10°C° 0 mm 2 m/s 745 mmHg 75%
    23:00 +10°C° 0 mm 2 m/s 745 mmHg 76%

    Après-demain, 31 Janvier, Vendredi

    Heure Température Précipitation Vent Pression Humidité
    00:00 +10°C° 0 mm 2 m/s 744 mmHg 77%
    01:00 +10°C° 0 mm 2 m/s 744 mmHg 77%
    02:00 +10°C° 0 mm 2 m/s 744 mmHg 77%
    03:00 +10°C° 0 mm 2 m/s 744 mmHg 78%
    04:00 +9°C° 0.1 mm 2 m/s 744 mmHg 81%
    05:00 +9°C° 0.1 mm 2 m/s 744 mmHg 84%
    06:00 +9°C° 0.1 mm 3 m/s 744 mmHg 87%
    07:00 +9°C° 0 mm 2 m/s 744 mmHg 87%
    08:00 +9°C° 0 mm 2 m/s 744 mmHg 87%
    09:00 +9°C° 0 mm 2 m/s 745 mmHg 87%
    10:00 +10°C° 0.2 mm 1 m/s 744 mmHg 88%
    11:00 +10°C° 0.2 mm 1 m/s 744 mmHg 89%
    12:00 +10°C° 0.2 mm 1 m/s 744 mmHg 90%
    13:00 +10°C° 0.3 mm 1 m/s 743 mmHg 90%
    14:00 +10°C° 0.3 mm 1 m/s 743 mmHg 91%
    15:00 +10°C° 0.3 mm 1 m/s 742 mmHg 91%
    16:00 +10°C° 0 mm 1 m/s 742 mmHg 92%
    17:00 +10°C° 0 mm 1 m/s 742 mmHg 92%
    18:00 +9°C° 0 mm 1 m/s 742 mmHg 93%
    19:00 +9°C° 0 mm 1 m/s 742 mmHg 93%
    20:00 +8°C° 0 mm 1 m/s 743 mmHg 94%
    21:00 +8°C° 0 mm 1 m/s 743 mmHg 95%
    22:00 +8°C° 0 mm 1 m/s 743 mmHg 95%
    23:00 +7°C° 0 mm 0 m/s 743 mmHg 95%

    1 Février, Samedi

    Heure Température Précipitation Vent Pression Humidité
    00:00 +6°C° 0 mm 0 m/s 743 mmHg 95%
    01:00 +7°C° 0 mm 0 m/s 742 mmHg 94%
    02:00 +7°C° 0 mm 0 m/s 742 mmHg 93%
    03:00 +7°C° 0 mm 0 m/s 742 mmHg 92%
    04:00 +7°C° 0 mm 0 m/s 742 mmHg 93%
    05:00 +7°C° 0 mm 0 m/s 742 mmHg 93%
    06:00 +8°C° 0 mm 1 m/s 742 mmHg 93%
    07:00 +7°C° 0 mm 0 m/s 742 mmHg 89%
    08:00 +8°C° 0 mm 0 m/s 742 mmHg 86%
    09:00 +9°C° 0 mm 0 m/s 743 mmHg 82%
    10:00 +10°C° 0.3 mm 1 m/s 742 mmHg 83%
    11:00 +10°C° 0.3 mm 1 m/s 742 mmHg 84%
    12:00 +9°C° 0.3 mm 2 m/s 742 mmHg 84%
    13:00 +10°C° 0.3 mm 2 m/s 742 mmHg 82%
    14:00 +10°C° 0.3 mm 3 m/s 741 mmHg 79%
    15:00 +10°C° 0.3 mm 3 m/s 741 mmHg 77%
    16:00 +9°C° 0.1 mm 3 m/s 742 mmHg 79%
    17:00 +9°C° 0.1 mm 3 m/s 742 mmHg 81%
    18:00 +8°C° 0.1 mm 3 m/s 742 mmHg 83%
    19:00 +7°C° 0 mm 2 m/s 743 mmHg 84%
    20:00 +7°C° 0 mm 2 m/s 743 mmHg 84%
    21:00 +6°C° 0 mm 2 m/s 743 mmHg 84%
    22:00 +6°C° 0 mm 2 m/s 743 mmHg 85%
    23:00 +5°C° 0 mm 2 m/s 743 mmHg 86%

    2 Février, Dimanche

    Heure Température Précipitation Vent Pression Humidité
    00:00 +4°C° 0 mm 3 m/s 743 mmHg 87%
    01:00 +5°C° 0 mm 2 m/s 743 mmHg 87%
    02:00 +4°C° 0 mm 2 m/s 743 mmHg 86%
    03:00 +4°C° 0 mm 2 m/s 743 mmHg 86%
    04:00 +4°C° 0 mm 2 m/s 743 mmHg 87%
    05:00 +4°C° 0 mm 2 m/s 743 mmHg 88%
    06:00 +3°C° 0 mm 2 m/s 743 mmHg 89%
    07:00 +5°C° 0 mm 2 m/s 744 mmHg 84%
    08:00 +6°C° 0 mm 2 m/s 744 mmHg 78%
    09:00 +7°C° 0 mm 3 m/s 744 mmHg 73%
    10:00 +9°C° 0 mm 3 m/s 744 mmHg 66%
    11:00 +11°C° 0 mm 3 m/s 744 mmHg 59%
    12:00 +13°C° 0 mm 3 m/s 744 mmHg 52%
    13:00 +14°C° 0 mm 3 m/s 743 mmHg 52%
    14:00 +16°C° 0 mm 3 m/s 743 mmHg 51%
    15:00 +17°C° 0 mm 3 m/s 743 mmHg 51%
    16:00 +15°C° 0 mm 2 m/s 743 mmHg 59%
    17:00 +13°C° 0 mm 2 m/s 743 mmHg 67%
    18:00 +11°C° 0 mm 1 m/s 743 mmHg 75%
    19:00 +11°C° 0 mm 1 m/s 743 mmHg 77%
    20:00 +10°C° 0 mm 1 m/s 743 mmHg 79%
    21:00 +9°C° 0 mm 2 m/s 744 mmHg 81%
    22:00 +8°C° 0 mm 2 m/s 744 mmHg 82%
    23:00 +8°C° 0 mm 2 m/s 743 mmHg 84%

    3 Février, Lundi

    Heure Température Précipitation Vent Pression Humidité
    00:00 +8°C° 0 mm 1 m/s 743 mmHg 85%
    01:00 +8°C° 0 mm 1 m/s 743 mmHg 85%
    02:00 +8°C° 0 mm 1 m/s 743 mmHg 85%
    03:00 +8°C° 0 mm 1 m/s 743 mmHg 85%
    04:00 +8°C° 0 mm 1 m/s 743 mmHg 85%
    05:00 +7°C° 0 mm 1 m/s 743 mmHg 85%
    06:00 +7°C° 0 mm 1 m/s 743 mmHg 84%
    07:00 +9°C° 0 mm 1 m/s 743 mmHg 79%
    08:00 +9°C° 0 mm 2 m/s 744 mmHg 73%
    09:00 +10°C° 0 mm 2 m/s 744 mmHg 67%
    10:00 +12°C° 0 mm 3 m/s 744 mmHg 62%
    11:00 +14°C° 0 mm 3 m/s 744 mmHg 56%
    12:00 +16°C° 0 mm 3 m/s 743 mmHg 51%
    13:00 +17°C° 0 mm 3 m/s 743 mmHg 51%
    14:00 +17°C° 0 mm 3 m/s 742 mmHg 51%
    15:00 +17°C° 0 mm 3 m/s 741 mmHg 52%
    16:00 +16°C° 0 mm 3 m/s 742 mmHg 58%
    17:00 +14°C° 0 mm 3 m/s 742 mmHg 64%
    18:00 +14°C° 0 mm 2 m/s 742 mmHg 71%
    19:00 +14°C° 0 mm 2 m/s 742 mmHg 72%
    20:00 +13°C° 0 mm 3 m/s 742 mmHg 73%
    21:00 +13°C° 0 mm 3 m/s 742 mmHg 74%
    22:00 +13°C° 0 mm 3 m/s 742 mmHg 75%
    23:00 +13°C° 0 mm 4 m/s 742 mmHg 76%
    Voir plus